KC5AYO Weather Reports


Display with metric or nautical units.
time (UTC)temp
F
wind
direction
speed
MPH
gust
MPH
rain 1hr
in
rain 24hr
in
rain mn
in
humidity
%
barometer
mb
20260510231632 67 30 0.0 3.0 0.00 0.01 0.01 40 1016.3
20260510231030 67 355 0.0 2.0 0.00 0.01 0.01 40 1016.3
20260510230531 68 346 1.0 3.0 0.00 0.01 0.01 39 1016.4
20260510230030 68 70 0.0 3.0 0.00 0.01 0.01 39 1016.2
20260510225530 68 5 0.0 3.0 0.00 0.01 0.01 39 1016.4
20260510225029 68 24 0.0 5.0 0.00 0.01 0.01 40 1016.4
20260510224530 68 15 1.0 5.0 0.00 0.01 0.01 37 1016.3
20260510224029 69 22 1.0 3.0 0.00 0.01 0.01 39 1016.4
20260510223533 69 15 0.0 3.0 0.00 0.01 0.01 38 1016.4
20260510223029 69 338 1.0 5.0 0.00 0.01 0.01 36 1016.4
20260510222529 69 9 1.0 5.0 0.00 0.01 0.01 39 1016.4
20260510222029 69 292 0.0 4.0 0.00 0.01 0.01 40 1016.4
20260510221528 69 5 0.0 4.0 0.00 0.01 0.01 37 1016.3
20260510221027 68 5 0.0 4.0 0.00 0.01 0.01 39 1016.2
20260510220527 68 355 0.0 3.0 0.00 0.01 0.01 38 1016.2
20260510220027 68 55 0.0 3.0 0.00 0.01 0.01 40 1016.2
20260510215527 68 360 0.0 4.0 0.00 0.01 0.01 39 1016.2
20260510215027 68 5 0.0 4.0 0.00 0.01 0.01 39 1016.0
20260510214527 68 9 0.0 3.0 0.00 0.01 0.01 38 1016.1
20260510214027 69 330 1.0 3.0 0.00 0.01 0.01 44 1016.1
20260510213526 69 324 0.0 3.0 0.00 0.01 0.01 41 1016.1
20260510213026 69 13 0.0 5.0 0.00 0.01 0.01 42 1016.0
20260510212527 69 355 0.0 5.0 0.00 0.01 0.01 45 1015.9
20260510212026 69 360 1.0 4.0 0.00 0.01 0.01 39 1016.0
20260510211526 69 360 0.0 2.0 0.00 0.01 0.01 40 1015.9
20260510211025 69 9 0.0 3.0 0.00 0.01 0.01 41 1015.7
20260510210527 69 327 1.0 3.0 0.00 0.01 0.01 36 1015.8
20260510210026 70 346 0.0 2.0 0.00 0.01 0.01 37 1015.6
20260510205528 69 289 0.0 2.0 0.00 0.01 0.01 40 1015.7
20260510205025 69 204 0.0 5.0 0.00 0.01 0.01 42 1015.6
20260510204528 69 349 0.0 5.0 0.00 0.01 0.01 40 1015.7
20260510204024 69 88 1.0 4.0 0.00 0.01 0.01 41 1015.7
20260510203524 69 212 0.0 4.0 0.00 0.01 0.01 37 1015.7
20260510203024 69 348 0.0 4.0 0.00 0.01 0.01 38 1015.7
20260510202624 70 349 1.0 4.0 0.00 0.01 0.01 40 1015.6
20260510202023 69 350 0.0 2.0 0.00 0.01 0.01 37 1015.6
20260510201523 69 253 0.0 4.0 0.00 0.01 0.01 37 1015.5
20260510201125 69 303 1.0 4.0 0.00 0.01 0.01 35 1015.5
20260510200527 69 342 1.0 4.0 0.00 0.01 0.01 40 1015.5
20260510200042 69 75 2.0 4.0 0.00 0.01 0.01 40 1015.4
20260510195526 69 5 0.0 4.0 0.00 0.01 0.01 38 1015.6
20260510195022 69 350 2.0 4.0 0.00 0.01 0.01 39 1015.7
20260510194522 69 341 1.0 3.0 0.00 0.01 0.01 38 1015.7
20260510194025 70 304 0.0 5.0 0.00 0.01 0.01 35 1015.8
20260510193522 69 355 1.0 5.0 0.00 0.01 0.01 35 1015.8
20260510193033 70 9 1.0 4.0 0.00 0.01 0.01 34 1015.8
20260510192520 70 278 1.0 3.0 0.00 0.01 0.01 37 1015.8
20260510192020 69 5 1.0 4.0 0.00 0.01 0.01 39 1015.9
20260510191520 69 69 0.0 4.0 0.00 0.01 0.01 41 1015.9
20260510191019 69 340 1.0 4.0 0.00 0.01 0.01 37 1015.8
20260510190519 70 344 1.0 4.0 0.00 0.01 0.01 36 1015.8
20260510190025 69 39 0.0 4.0 0.00 0.01 0.01 44 1015.9
20260510185521 69 78 1.0 3.0 0.00 0.01 0.01 40 1015.9
20260510185020 69 83 1.0 2.0 0.00 0.01 0.01 38 1016.0
20260510184519 69 167 0.0 5.0 0.00 0.01 0.01 38 1015.9
20260510184019 70 321 0.0 5.0 0.00 0.01 0.01 36 1016.1
20260510183519 70 306 0.0 4.0 0.00 0.01 0.01 39 1016.1
20260510183037 69 11 0.0 4.0 0.00 0.01 0.01 38 1016.0
20260510182516 69 84 0.0 2.0 0.00 0.01 0.01 42 1016.1
20260510182018 69 319 0.0 3.0 0.00 0.01 0.01 42 1016.2
20260510181525 67 303 0.0 3.0 0.00 0.01 0.01 44 1016.1
20260510181018 68 81 1.0 5.0 0.00 0.01 0.01 41 1016.1
20260510180514 68 101 0.0 5.0 0.00 0.01 0.01 40 1016.0
20260510180013 68 68 0.0 4.0 0.00 0.01 0.01 40 1015.9
20260510175512 68 5 1.0 4.0 0.00 0.01 0.01 41 1016.0
20260510175011 68 82 0.0 5.0 0.00 0.01 0.01 45 1016.0
20260510174511 67 40 0.0 5.0 0.00 0.01 0.01 45 1016.1
20260510174014 67 84 0.0 4.0 0.00 0.01 0.01 46 1016.2
20260510173510 67 73 1.0 4.0 0.00 0.01 0.01 45 1016.2
20260510173009 67 88 0.0 2.0 0.00 0.01 0.01 47 1016.3
20260510172508 67 54 0.0 2.0 0.00 0.01 0.01 45 1016.2
20260510172010 66 22 0.0 2.0 0.00 0.01 0.01 46 1016.3
20260510171508 66 26 1.0 4.0 0.00 0.01 0.01 45 1016.3
20260510171004 66 74 1.0 4.0 0.00 0.01 0.01 46 1016.3
20260510170503 66 67 0.0 4.0 0.00 0.01 0.01 49 1016.4
20260510170002 66 88 1.0 4.0 0.00 0.01 0.01 49 1016.4
20260510165503 66 19 0.0 3.0 0.00 0.01 0.01 49 1016.4
20260510165003 66 82 0.0 2.0 0.00 0.01 0.01 45 1016.4
20260510164601 66 124 0.0 4.0 0.00 0.01 0.01 46 1016.5
20260510164059 65 13 0.0 4.0 0.00 0.01 0.01 46 1016.3
20260510163558 65 78 0.0 3.0 0.00 0.01 0.01 48 1016.1
20260510163058 65 309 0.0 3.0 0.00 0.01 0.01 46 1016.1
20260510162557 65 77 0.0 2.0 0.00 0.01 0.01 47 1016.0
20260510162056 65 39 0.0 2.0 0.00 0.01 0.01 47 1016.0
20260510161556 65 97 0.0 4.0 0.00 0.01 0.01 49 1015.9
20260510161054 64 85 1.0 4.0 0.00 0.01 0.01 50 1015.9
20260510160554 64 85 1.0 5.0 0.00 0.01 0.01 47 1015.8
20260510160055 64 88 3.0 5.0 0.00 0.01 0.01 49 1015.7
20260510155554 64 90 2.0 4.0 0.00 0.01 0.01 50 1016.0
20260510155052 63 87 1.0 4.0 0.00 0.01 0.01 48 1015.8
20260510154552 63 82 2.0 5.0 0.00 0.01 0.01 50 1015.8
20260510154051 63 87 1.0 5.0 0.00 0.01 0.01 50 1015.8
20260510153551 63 86 1.0 3.0 0.00 0.01 0.01 49 1015.8
20260510153050 63 9 0.0 3.0 0.00 0.01 0.01 49 1015.9
20260510152552 63 13 0.0 3.0 0.00 0.01 0.01 50 1015.8
20260510152049 63 82 1.0 3.0 0.00 0.01 0.01 53 1015.8
20260510151550 63 46 0.0 4.0 0.00 0.01 0.01 50 1015.5
20260510151046 63 9 1.0 4.0 0.00 0.01 0.01 52 1015.7
20260510150548 62 5 1.0 4.0 0.00 0.01 0.01 51 1015.7
20260510150046 62 360 0.0 4.0 0.00 0.01 0.01 51 1015.6
20260510145544 62 5 1.0 3.0 0.00 0.01 0.01 53 1015.4
20260510145043 62 62 0.0 4.0 0.00 0.01 0.01 53 1015.5
20260510144542 62 355 1.0 4.0 0.00 0.01 0.01 51 1015.5
20260510144043 62 82 1.0 4.0 0.00 0.01 0.01 55 1015.3
20260510143541 62 89 1.0 4.0 0.00 0.01 0.01 56 1015.4
20260510143042 61 9 0.0 4.0 0.00 0.01 0.01 54 1015.4
20260510142541 61 86 1.0 4.0 0.00 0.01 0.01 53 1015.4
20260510142045 61 79 2.0 4.0 0.00 0.01 0.01 54 1015.3
20260510141540 61 83 0.0 3.0 0.00 0.01 0.01 56 1015.3
20260510141039 60 41 0.0 3.0 0.00 0.01 0.01 56 1015.2
20260510140538 60 17 0.0 3.0 0.00 0.01 0.01 61 1015.2
20260510140037 60 79 0.0 3.0 0.00 0.01 0.01 62 1015.2
20260510135537 60 15 0.0 3.0 0.00 0.01 0.01 63 1015.1
20260510135036 60 9 0.0 3.0 0.00 0.01 0.01 64 1015.1
20260510134536 60 51 0.0 2.0 0.00 0.01 0.01 62 1015.1
20260510134035 60 21 0.0 2.0 0.00 0.01 0.01 64 1015.1
20260510133534 60 73 0.0 2.0 0.00 0.01 0.01 63 1015.1
20260510133039 60 56 0.0 3.0 0.00 0.01 0.01 63 1015.0
20260510132533 60 68 0.0 5.0 0.00 0.01 0.01 65 1014.9
20260510132032 60 5 0.0 3.0 0.00 0.01 0.01 62 1014.9
20260510131531 60 329 0.0 3.0 0.00 0.01 0.01 64 1014.8
20260510131029 59 78 1.0 3.0 0.00 0.01 0.01 63 1014.7
20260510130528 59 80 0.0 5.0 0.00 0.01 0.01 64 1014.4
20260510130027 59 56 0.0 5.0 0.00 0.01 0.01 66 1014.3
20260510125528 59 5 0.0 3.0 0.00 0.01 0.01 68 1014.1
20260510125024 58 67 0.0 2.0 0.00 0.01 0.01 69 1014.0
20260510124524 58 5 0.0 3.0 0.00 0.01 0.01 69 1013.9
20260510124027 58 9 1.0 3.0 0.00 0.01 0.01 71 1013.8
20260510123523 58 76 0.0 2.0 0.00 0.01 0.01 70 1013.7
20260510123021 58 36 0.0 2.0 0.00 0.01 0.01 71 1013.7
20260510122524 57 36 0.0 2.0 0.00 0.01 0.01 73 1013.6
20260510122020 57 5 0.0 2.0 0.00 0.01 0.01 72 1013.6
20260510121519 57 5 0.0 1.0 0.00 0.01 0.01 74 1013.5
20260510121018 57 5 0.0 2.0 0.00 0.01 0.01 72 1013.5
20260510120517 57 338 0.0 2.0 0.00 0.01 0.01 72 1013.2
20260510120022 57 355 0.0 2.0 0.00 0.01 0.01 73 1013.2
20260510115516 57 349 0.0 2.0 0.00 0.01 0.01 73 1013.1
20260510115015 57 341 0.0 2.0 0.00 0.01 0.01 72 1013.0
20260510114521 57 360 0.0 2.0 0.00 0.01 0.01 73 1013.0
20260510114013 57 360 0.0 4.0 0.00 0.01 0.01 73 1012.7
20260510113511 56 355 0.0 3.0 0.00 0.01 0.01 74 1012.6
20260510113011 56 360 0.0 2.0 0.00 0.01 0.01 75 1012.5
20260510112510 56 5 0.0 2.0 0.00 0.01 0.01 75 1012.3
20260510112010 56 5 0.0 1.0 0.00 0.01 0.01 76 1012.3
20260510111509 56 5 0.0 2.0 0.00 0.01 0.01 75 1012.2
20260510111008 56 5 0.0 2.0 0.00 0.01 0.01 75 1012.1
20260510110510 56 5 0.0 2.0 0.00 0.01 0.01 75 1012.0
20260510110008 56 5 0.0 2.0 0.00 0.01 0.01 76 1011.9
20260510105506 57 5 0.0 2.0 0.00 0.01 0.01 75 1011.7
20260510105008 56 5 0.0 1.0 0.00 0.01 0.01 77 1011.7
20260510104508 57 5 0.0 2.0 0.00 0.01 0.01 75 1011.7
20260510104005 57 360 0.0 2.0 0.01 0.01 0.01 77 1011.5
20260510103505 57 19 0.0 2.0 0.01 0.01 0.01 77 1011.3
20260510103006 57 69 0.0 2.0 0.01 0.01 0.01 76 1011.2
20260510102505 57 77 0.0 2.0 0.01 0.01 0.01 76 1011.0
20260510102004 57 5 0.0 2.0 0.01 0.01 0.01 78 1010.9
20260510101505 58 5 0.0 2.0 0.01 0.01 0.01 78 1010.8
20260510101004 58 360 0.0 3.0 0.01 0.01 0.01 77 1010.7
20260510100504 58 9 0.0 3.0 0.01 0.01 0.01 80 1010.6
20260510100007 58 30 0.0 2.0 0.01 0.02 0.01 81 1010.6
20260510095503 58 22 0.0 3.0 0.01 0.02 0.01 82 1010.9
20260510095003 59 351 1.0 3.0 0.01 0.02 0.01 83 1010.9
20260510094508 59 82 0.0 2.0 0.01 0.02 0.01 84 1010.8
20260510094002 59 350 0.0 2.0 0.00 0.01 0.00 83 1011.1
20260510093502 60 355 0.0 3.0 0.00 0.01 0.00 81 1011.2
20260510093003 60 350 0.0 3.0 0.00 0.01 0.00 80 1011.5
20260510092503 60 355 0.0 2.0 0.00 0.01 0.00 79 1011.2
20260510092002 60 355 0.0 2.0 0.00 0.01 0.00 80 1011.6
20260510091506 60 118 0.0 3.0 0.00 0.01 0.00 81 1011.9
20260510091002 59 355 0.0 3.0 0.00 0.01 0.00 83 1012.0
20260510090601 59 222 0.0 2.0 0.00 0.01 0.00 83 1012.2
20260510085602 58 69 0.0 2.0 0.00 0.06 0.00 85 1011.2
20260510085057 57 17 0.0 0.0 0.00 0.06 0.00 88 1011.1
20260510084558 57 126 0.0 0.0 0.00 0.06 0.00 89 1010.7
20260510084055 57 126 0.0 0.0 0.00 0.06 0.00 89 1010.6
20260510083555 57 126 0.0 0.0 0.00 0.06 0.00 89 1010.4
20260510083056 57 127 0.0 0.0 0.00 0.06 0.00 88 1010.4
20260510082553 57 127 0.0 0.0 0.00 0.06 0.00 88 1010.3
20260510082053 57 127 0.0 0.0 0.00 0.06 0.00 87 1010.2
20260510081553 57 127 0.0 0.0 0.00 0.06 0.00 86 1010.2
20260510081050 57 127 0.0 0.0 0.00 0.06 0.00 85 1009.9
20260510080649 57 127 0.0 0.0 0.00 0.06 0.00 85 1009.9
20260510080048 57 127 0.0 0.0 0.00 0.06 0.00 85 1009.8
20260510075547 57 127 0.0 0.0 0.00 0.17 0.00 85 1009.7
20260510075049 58 127 0.0 0.0 0.00 0.17 0.00 85 1009.6
20260510074546 58 127 0.0 0.0 0.00 0.17 0.00 85 1009.6
20260510074046 58 127 0.0 0.0 0.00 0.17 0.00 84 1009.7
20260510073545 58 127 0.0 0.0 0.00 0.17 0.00 83 1009.7
20260510073102 59 127 0.0 0.0 0.00 0.17 0.00 82 1009.5
20260510072545 59 126 0.0 0.0 0.00 0.17 0.00 82 1009.5
20260510072045 59 126 0.0 0.0 0.00 0.17 0.00 82 1009.5
20260510071556 59 126 0.0 0.0 0.00 0.17 0.00 80 1009.3
20260510071043 60 52 0.0 1.0 0.00 0.17 0.00 81 1009.4
20260510070544 59 58 0.0 2.0 0.00 0.17 0.00 82 1009.3
20260510070045 59 130 0.0 2.0 0.00 0.17 0.00 84 1009.3
20260510065546 58 176 0.0 0.0 0.00 0.24 0.00 84 1009.2
20260510065042 58 176 0.0 0.0 0.00 0.24 0.00 84 1009.0
20260510064553 58 176 0.0 0.0 0.00 0.24 0.00 84 1009.1
20260510064041 58 176 0.0 0.0 0.00 0.24 0.00 84 1009.1
20260510063542 58 176 0.0 0.0 0.00 0.24 0.00 84 1009.1
20260510063046 58 176 0.0 0.0 0.00 0.24 0.00 84 1009.2
20260510062541 58 176 0.0 0.0 0.00 0.24 0.00 84 1009.3
20260510062044 58 176 0.0 0.0 0.00 0.24 0.00 83 1009.2
20260510061540 59 176 0.0 0.0 0.00 0.24 0.00 83 1009.3
20260510061041 58 176 0.0 0.0 0.00 0.24 0.00 84 1009.4
20260510060538 59 176 0.0 0.0 0.00 0.24 0.00 84 1009.4
20260510060038 59 176 0.0 0.0 0.00 0.24 0.00 82 1009.4
20260510055537 59 176 0.0 0.0 0.00 0.26 0.00 82 1009.4
20260510055041 59 176 0.0 0.0 0.00 0.26 0.00 82 1009.4
20260510054537 59 176 0.0 0.0 0.00 0.26 0.00 82 1009.5
20260510054036 59 176 0.0 0.0 0.00 0.26 0.00 81 1009.6
20260510053536 59 176 0.0 0.0 0.00 0.26 0.00 81 1009.5
20260510053037 60 176 0.0 0.0 0.00 0.26 0.00 80 1009.5
20260510052533 60 176 0.0 0.0 0.00 0.26 0.00 79 1009.6
20260510052037 60 176 0.0 0.0 0.00 0.26 0.00 79 1009.5
20260510051537 61 176 0.0 0.0 0.00 0.26 0.00 78 1009.5
20260510051032 61 176 0.0 0.0 0.00 0.26 0.00 78 1009.5
20260510050535 61 176 0.0 0.0 0.00 0.26 0.00 78 1009.4
20260510050032 61 176 0.0 0.0 0.00 0.26 0.00 78 1009.4
20260510045533 60 176 0.0 0.0 0.00 0.28 0.00 79 1009.3
20260510045035 60 176 0.0 0.0 0.00 0.28 0.00 79 1009.3
20260510044544 60 176 0.0 0.0 0.00 0.28 0.00 80 1009.4
20260510044031 60 176 0.0 0.0 0.00 0.28 0.00 80 1009.4
20260510043531 60 176 0.0 0.0 0.00 0.28 0.00 80 1009.3
20260510043030 60 176 0.0 0.0 0.00 0.28 0.00 79 1009.3
20260510042527 61 176 0.0 0.0 0.00 0.28 0.00 78 1009.2
20260510042027 61 176 0.0 0.0 0.00 0.28 0.00 78 1009.3
20260510041526 61 176 0.0 0.0 0.00 0.28 0.00 77 1009.4
20260510041028 61 176 0.0 0.0 0.00 0.28 0.00 76 1009.5
20260510040524 62 176 0.0 0.0 0.00 0.28 0.00 76 1009.5
20260510040029 62 176 0.0 0.0 0.00 0.32 0.28 75 1009.5
20260510035523 62 176 0.0 2.0 0.00 0.32 0.28 74 1009.4
20260510035023 62 176 0.0 2.0 0.00 0.32 0.28 73 1009.4
20260510034532 63 174 0.0 2.0 0.00 0.32 0.28 72 1009.5
20260510034023 63 174 0.0 2.0 0.00 0.32 0.28 72 1009.4
20260510033522 63 182 0.0 2.0 0.00 0.32 0.28 71 1009.5
20260510033022 63 194 0.0 2.0 0.00 0.32 0.28 72 1009.4
20260510032525 63 187 0.0 2.0 0.00 0.32 0.28 72 1009.4
20260510032022 63 169 0.0 2.0 0.00 0.32 0.28 72 1009.5
20260510031522 63 218 0.0 1.0 0.00 0.32 0.28 73 1009.5
20260510031021 62 218 0.0 0.0 0.00 0.32 0.28 73 1009.5
20260510030520 62 218 0.0 0.0 0.00 0.32 0.28 74 1009.4
20260510030020 61 218 0.0 0.0 0.00 0.36 0.28 75 1009.4
20260510025520 62 218 0.0 0.0 0.00 0.36 0.28 75 1009.5
20260510025019 62 218 0.0 0.0 0.00 0.36 0.28 75 1009.4
20260510024519 62 218 0.0 0.0 0.00 0.36 0.28 75 1009.4
20260510024018 62 218 0.0 0.0 0.00 0.36 0.28 74 1009.2
20260510023518 63 218 0.0 0.0 0.00 0.36 0.28 71 1009.2
20260510023018 63 218 0.0 0.0 0.00 0.36 0.28 70 1009.1
20260510022518 64 218 0.0 0.0 0.00 0.36 0.28 69 1009.0
20260510022017 65 218 0.0 0.0 0.00 0.36 0.28 67 1008.9
20260510021531 65 218 0.0 0.0 0.00 0.36 0.28 66 1008.7
20260510021019 66 218 0.0 0.0 0.00 0.36 0.28 64 1008.6
20260510020517 66 229 0.0 0.0 0.00 0.36 0.28 64 1008.5
20260510020017 66 229 0.0 0.0 0.00 0.42 0.28 65 1008.5
20260510015517 66 229 0.0 0.0 0.00 0.42 0.28 64 1008.4
20260510015021 66 229 0.0 0.0 0.00 0.42 0.28 64 1008.5
20260510014517 66 229 0.0 0.0 0.00 0.42 0.28 63 1008.5
20260510014018 67 229 0.0 0.0 0.00 0.42 0.28 62 1008.4
20260510013516 66 229 0.0 0.0 0.00 0.42 0.28 63 1008.4
20260510013016 67 229 0.0 0.0 0.00 0.42 0.28 61 1008.3
20260510012516 67 229 0.0 2.0 0.00 0.42 0.28 59 1008.2
20260510012016 68 231 0.0 2.0 0.00 0.42 0.28 59 1008.2
20260510011516 68 233 0.0 0.0 0.00 0.42 0.28 58 1008.1
20260510011015 68 248 0.0 0.0 0.00 0.42 0.28 59 1008.1
20260510010515 68 261 0.0 0.0 0.00 0.42 0.28 59 1007.9
20260510010015 68 284 0.0 0.0 0.00 0.43 0.28 59 1007.9
20260510005515 68 284 0.0 2.0 0.00 0.43 0.28 59 1007.9
20260510005015 69 284 0.0 2.0 0.00 0.43 0.28 57 1007.9
20260510004517 69 200 0.0 0.0 0.00 0.43 0.28 55 1007.8
20260510004019 70 202 0.0 0.0 0.00 0.43 0.28 54 1007.7
20260510003516 70 205 0.0 0.0 0.00 0.43 0.28 54 1007.6
20260510003015 70 285 0.0 2.0 0.00 0.43 0.28 53 1007.6
20260510002515 71 285 0.0 2.0 0.00 0.43 0.28 52 1007.5
20260510002014 71 219 0.0 2.0 0.00 0.43 0.28 52 1007.4
20260510001514 71 199 0.0 2.0 0.00 0.43 0.28 51 1007.3
20260510001017 72 222 0.0 2.0 0.00 0.43 0.28 51 1007.3
20260510000514 72 206 0.0 2.0 0.00 0.43 0.28 47 1007.2
20260510000018 73 285 0.0 2.0 0.00 0.43 0.28 48 1007.2
20260509235513 73 318 0.0 3.0 0.00 0.43 0.28 47 1007.1
20260509235013 73 273 0.0 3.0 0.00 0.43 0.28 47 1007.1
20260509234513 73 311 1.0 3.0 0.00 0.43 0.28 46 1007.0
20260509234012 73 183 0.0 2.0 0.00 0.43 0.28 48 1006.9
20260509233512 74 313 0.0 2.0 0.00 0.43 0.28 47 1006.9
20260509233012 74 253 0.0 8.0 0.00 0.43 0.28 48 1006.9
20260509232514 74 282 0.0 8.0 0.00 0.43 0.28 47 1006.8
20260509232012 74 285 0.0 4.0 0.00 0.43 0.28 44 1006.7